FW7504 Weather Reports


time (UTC)temp
C
wind
direction
speed
KPH
gust
KPH
rain 1hr
cm
rain 24hr
cm
rain mn
cm
humidity
%
barometer
mb
20260903143553 30 20 0.0 8.0 0.00 0.00 0.00 70 1019.8
20260903143103 30 342 1.6 8.0 0.00 0.00 0.00 70 1019.8
20260903142553 30 100 1.6 6.4 0.00 0.00 0.00 70 1019.9
20260903142052 30 0 1.6 4.8 0.00 0.00 0.00 71 1019.7
20260903141601 30 0 0.0 4.8 0.00 0.00 0.00 75 1019.8
20260903141054 30 0 1.6 4.8 0.00 0.00 0.00 75 1019.8
20260903140554 29 44 0.0 4.8 0.00 0.00 0.00 75 1019.9
20260903140101 29 0 0.0 6.4 0.00 0.00 0.00 76 1019.7
20260903135552 28 9 1.6 6.4 0.00 0.00 0.00 78 1019.7
20260903135052 28 17 1.6 6.4 0.00 0.00 0.00 78 1019.8
20260903134606 28 95 3.2 4.8 0.00 0.00 0.00 79 1019.8
20260903134050 27 0 0.0 4.8 0.00 0.00 0.00 80 1019.8
20260903133556 27 0 1.6 6.4 0.00 0.00 0.00 82 1019.9
20260903133106 27 40 1.6 6.4 0.00 0.00 0.00 82 1019.8
20260903132552 26 40 1.6 6.4 0.00 0.00 0.00 83 1019.9
20260903132052 26 343 1.6 6.4 0.00 0.00 0.00 83 1019.7
20260903131606 26 0 1.6 4.8 0.00 0.00 0.00 84 1019.8
20260903131056 26 0 1.6 6.4 0.00 0.00 0.00 86 1019.8
20260903130555 25 5 1.6 6.4 0.00 0.00 0.00 87 1019.8
20260903130117 25 350 1.6 6.4 0.00 0.00 0.00 87 1019.8
20260903125553 25 43 0.0 4.8 0.00 0.00 0.00 88 1019.8
20260903125054 25 32 1.6 4.8 0.00 0.00 0.00 88 1020.0
20260903124610 24 352 0.0 4.8 0.00 0.00 0.00 89 1020.0
20260903124052 24 0 1.6 4.8 0.00 0.00 0.00 89 1019.9
20260903123555 23 352 0.0 4.8 0.00 0.00 0.00 90 1020.0
20260903123102 23 0 0.0 4.8 0.00 0.00 0.00 90 1019.9
20260903122556 23 329 1.6 4.8 0.00 0.00 0.00 90 1020.0
20260903122053 23 0 0.0 4.8 0.00 0.00 0.00 90 1020.0
20260903121602 23 0 0.0 4.8 0.00 0.00 0.00 90 1020.0
20260903121052 23 0 1.6 4.8 0.00 0.00 0.00 91 1019.9
20260903120553 23 0 0.0 0.0 0.00 0.00 0.00 90 1019.8
20260903120106 23 0 0.0 3.2 0.00 0.00 0.00 90 1019.9
20260903115554 23 0 0.0 3.2 0.00 0.00 0.00 91 1019.7
20260903115052 23 360 0.0 1.6 0.00 0.00 0.00 91 1019.7
20260903114608 23 0 0.0 0.0 0.00 0.00 0.00 90 1019.7
20260903114052 23 0 0.0 0.0 0.00 0.00 0.00 90 1019.7
20260903113552 23 0 0.0 0.0 0.00 0.00 0.00 90 1019.6
20260903113102 23 0 0.0 0.0 0.00 0.00 0.00 89 1019.5
20260903112554 23 0 0.0 0.0 0.00 0.00 0.00 89 1019.3
20260903112053 23 0 0.0 0.0 0.00 0.00 0.00 89 1019.4
20260903111626 23 0 0.0 0.0 0.00 0.00 0.00 89 1019.3
20260903111052 23 0 0.0 0.0 0.00 0.00 0.00 90 1019.2
20260903110552 23 0 0.0 0.0 0.00 0.00 0.00 89 1019.2
20260903110113 23 0 0.0 0.0 0.00 0.00 0.00 90 1019.1
20260903105553 23 0 0.0 0.0 0.00 0.00 0.00 89 1019.1
20260903105053 23 0 0.0 0.0 0.00 0.00 0.00 89 1019.0
20260903104633 23 0 0.0 0.0 0.00 0.00 0.00 89 1018.9
20260903104053 23 0 0.0 0.0 0.00 0.00 0.00 89 1019.0
20260903103555 23 0 0.0 0.0 0.00 0.00 0.00 89 1018.9
20260903103105 23 0 0.0 0.0 0.00 0.00 0.00 89 1019.0
20260903102552 23 0 0.0 0.0 0.00 0.00 0.00 89 1018.9
20260903102052 23 0 0.0 0.0 0.00 0.00 0.00 89 1018.9
20260903101606 23 0 0.0 0.0 0.00 0.00 0.00 89 1018.8
20260903101053 23 0 0.0 0.0 0.00 0.00 0.00 88 1018.8
20260903100553 23 0 0.0 0.0 0.00 0.00 0.00 88 1018.8
20260903095552 23 0 0.0 0.0 0.00 0.00 0.00 88 1018.9
20260903095052 23 0 0.0 0.0 0.00 0.00 0.00 88 1018.8
20260903094609 23 0 0.0 0.0 0.00 0.00 0.00 88 1018.8
20260903094055 23 0 0.0 0.0 0.00 0.00 0.00 88 1018.8
20260903093556 23 0 0.0 0.0 0.00 0.00 0.00 87 1018.7
20260903093105 23 0 0.0 0.0 0.00 0.00 0.00 87 1018.7
20260903092552 23 0 0.0 0.0 0.00 0.00 0.00 87 1018.9
20260903092051 23 0 0.0 0.0 0.00 0.00 0.00 87 1018.8
20260903091612 23 0 0.0 0.0 0.00 0.00 0.00 87 1018.8
20260903091055 23 0 0.0 0.0 0.00 0.00 0.00 87 1018.7
20260903090553 23 0 0.0 0.0 0.00 0.00 0.00 87 1018.7
20260903090104 23 0 0.0 0.0 0.00 0.00 0.00 87 1018.7
20260903085552 23 0 0.0 0.0 0.00 0.00 0.00 87 1018.7
20260903085052 23 0 0.0 0.0 0.00 0.00 0.00 87 1018.7
20260903084600 23 0 0.0 0.0 0.00 0.00 0.00 86 1018.7
20260903084052 24 0 0.0 0.0 0.00 0.00 0.00 86 1018.6
20260903083553 24 0 0.0 0.0 0.00 0.00 0.00 86 1018.7
20260903083100 24 0 0.0 0.0 0.00 0.00 0.00 86 1018.6
20260903082552 24 0 0.0 0.0 0.00 0.00 0.00 86 1018.7
20260903082052 24 0 0.0 0.0 0.00 0.00 0.00 86 1018.6
20260903081603 24 0 0.0 0.0 0.00 0.00 0.00 86 1018.6
20260903081055 24 0 0.0 0.0 0.00 0.00 0.00 86 1018.6
20260903080555 24 0 0.0 0.0 0.00 0.00 0.00 85 1018.7
20260903075556 24 0 0.0 0.0 0.00 0.00 0.00 86 1018.6
20260903075052 24 0 0.0 0.0 0.00 0.00 0.00 86 1018.8
20260903074604 24 0 0.0 0.0 0.00 0.00 0.00 85 1018.8
20260903074053 24 0 0.0 0.0 0.00 0.00 0.00 85 1018.6
20260903073553 24 0 0.0 0.0 0.00 0.00 0.00 85 1018.7
20260903073111 25 0 0.0 0.0 0.00 0.00 0.00 85 1018.6
20260903072556 25 0 0.0 0.0 0.00 0.00 0.00 84 1018.6
20260903072053 25 0 0.0 0.0 0.00 0.00 0.00 84 1018.6
20260903071605 25 0 0.0 0.0 0.00 0.00 0.00 84 1018.5
20260903071052 25 0 0.0 0.0 0.00 0.00 0.00 84 1018.6
20260903070554 25 0 0.0 0.0 0.00 0.00 0.00 84 1018.5
20260903070103 25 0 0.0 0.0 0.00 0.00 0.00 84 1018.4
20260903065552 25 0 0.0 0.0 0.00 0.00 0.00 84 1018.4
20260903065052 25 0 0.0 0.0 0.00 0.00 0.00 83 1018.4
20260903064601 25 0 0.0 0.0 0.00 0.00 0.00 83 1018.3
20260903064052 25 0 0.0 0.0 0.00 0.00 0.00 83 1018.3
20260903063552 25 0 0.0 0.0 0.00 0.00 0.00 83 1018.5
20260903063102 25 0 0.0 0.0 0.00 0.00 0.00 83 1018.6
20260903062553 25 0 0.0 0.0 0.00 0.00 0.00 83 1018.6
20260903062053 25 0 0.0 0.0 0.00 0.00 0.00 82 1018.7
20260903061612 25 0 0.0 0.0 0.00 0.00 0.00 82 1018.7
20260903061050 25 0 0.0 0.0 0.00 0.00 0.00 82 1018.9
20260903060553 25 0 0.0 0.0 0.00 0.00 0.00 82 1018.6
20260903060108 25 0 0.0 0.0 0.00 0.00 0.00 82 1018.9
20260903055553 25 0 0.0 0.0 0.00 0.00 0.00 82 1018.9
20260903055053 25 0 0.0 0.0 0.00 0.00 0.00 82 1019.0
20260903054601 26 0 0.0 0.0 0.00 0.00 0.00 82 1019.0
20260903054052 26 0 0.0 0.0 0.00 0.00 0.00 81 1018.8
20260903053551 26 0 0.0 0.0 0.00 0.00 0.00 81 1018.7
20260903053112 26 0 0.0 0.0 0.00 0.00 0.00 81 1018.7
20260903052550 26 0 0.0 0.0 0.00 0.00 0.00 80 1018.7
20260903052052 26 0 0.0 0.0 0.00 0.00 0.00 81 1018.8
20260903051602 26 0 0.0 0.0 0.00 0.00 0.00 81 1018.7
20260903051051 26 0 0.0 0.0 0.00 0.00 0.00 80 1018.7
20260903050552 26 0 0.0 0.0 0.00 0.00 0.00 80 1018.7
20260903050107 26 0 0.0 0.0 0.00 0.00 0.00 80 1018.7
20260903045549 26 0 0.0 0.0 0.00 0.00 0.00 80 1018.8
20260903045051 26 0 0.0 0.0 0.00 0.00 0.00 80 1018.7
20260903044608 26 0 0.0 0.0 0.00 0.00 0.00 80 1018.6
20260903044053 26 0 0.0 0.0 0.00 0.00 0.00 80 1018.7
20260903043551 26 0 0.0 0.0 0.00 0.00 0.00 79 1018.7
20260903043104 26 0 0.0 0.0 0.00 0.00 0.00 78 1018.6
20260903042552 26 0 0.0 0.0 0.00 0.00 0.00 78 1018.6
20260903042053 26 0 0.0 3.2 0.00 0.00 0.00 78 1018.7
20260903041604 26 0 0.0 3.2 0.00 0.00 0.00 78 1018.7
20260903041053 27 0 0.0 1.6 0.00 0.00 0.00 77 1018.6
20260903040552 27 0 0.0 1.6 0.00 0.00 0.00 77 1018.6
20260903040109 27 0 0.0 0.0 0.00 0.00 0.00 77 1018.6
20260903035549 27 0 0.0 0.0 0.00 0.00 0.00 77 1018.5
20260903035049 27 0 0.0 0.0 0.00 0.00 0.00 76 1018.6
20260903034601 27 0 0.0 0.0 0.00 0.00 0.00 76 1018.7
20260903034053 27 0 0.0 0.0 0.00 0.00 0.00 74 1018.8
20260903033551 27 0 0.0 0.0 0.00 0.00 0.00 74 1018.7
20260903033058 27 0 0.0 0.0 0.00 0.00 0.00 74 1018.7
20260903032552 27 0 0.0 0.0 0.00 0.00 0.00 75 1018.7
20260903032054 27 0 0.0 0.0 0.00 0.00 0.00 76 1018.6
20260903031607 28 0 0.0 0.0 0.00 0.00 0.00 76 1018.7
20260903031052 28 0 0.0 0.0 0.00 0.00 0.00 75 1018.7
20260903030552 28 0 0.0 0.0 0.00 0.00 0.00 75 1018.7
20260903030115 28 0 0.0 0.0 0.00 0.00 0.00 74 1018.7
20260903025619 28 0 0.0 0.0 0.00 0.00 0.00 73 1018.7
20260903025053 28 0 0.0 0.0 0.00 0.00 0.00 73 1018.7
20260903024559 28 0 0.0 0.0 0.00 0.00 0.00 72 1018.8
20260903024049 28 0 0.0 0.0 0.00 0.00 0.00 73 1018.7
20260903023548 28 0 0.0 0.0 0.00 0.00 0.00 72 1018.7
20260903023100 28 0 0.0 0.0 0.00 0.00 0.00 71 1018.6
20260903022555 29 0 0.0 0.0 0.00 0.00 0.00 70 1018.5
20260903022048 29 0 0.0 6.4 0.00 0.00 0.00 69 1018.5
20260903021603 29 0 0.0 6.4 0.00 0.00 0.00 68 1018.6
20260903021052 29 360 1.6 6.4 0.00 0.00 0.00 68 1018.7
20260903020552 29 360 1.6 4.8 0.00 0.00 0.00 67 1018.5
20260903020101 29 360 3.2 6.4 0.00 0.00 0.00 69 1018.7
20260903015553 29 360 1.6 6.4 0.00 0.00 0.00 68 1018.5
20260903015052 29 360 1.6 4.8 0.00 0.00 0.00 67 1018.5
20260903014611 29 360 1.6 4.8 0.00 0.00 0.00 68 1018.5
20260903014052 29 360 1.6 4.8 0.00 0.00 0.00 67 1018.5
20260903013555 29 360 1.6 4.8 0.00 0.00 0.00 67 1018.4
20260903013106 30 360 0.0 4.8 0.00 0.00 0.00 68 1018.4
20260903012552 30 0 1.6 4.8 0.00 0.00 0.00 67 1018.4
20260903012052 30 360 0.0 3.2 0.00 0.00 0.00 67 1018.3
20260903011618 30 0 0.0 3.2 0.00 0.00 0.00 67 1018.1
20260903011049 30 360 0.0 3.2 0.00 0.00 0.00 67 1018.2
20260903010554 30 360 1.6 3.2 0.00 0.00 0.00 67 1018.1
20260903010118 30 360 0.0 3.2 0.00 0.00 0.00 66 1018.1
20260903005549 30 0 1.6 3.2 0.00 0.00 0.00 66 1018.1
20260903005048 30 0 0.0 3.2 0.00 0.00 0.00 66 1018.0
20260903004600 30 0 0.0 3.2 0.00 0.00 0.00 66 1017.9
20260903004053 31 360 0.0 1.6 0.00 0.00 0.00 65 1017.9
20260903003551 31 0 0.0 0.0 0.00 0.00 0.00 65 1017.8
20260903003106 31 0 0.0 0.0 0.00 0.00 0.00 66 1017.8
20260903002552 31 0 0.0 0.0 0.00 0.00 0.00 65 1017.8
20260903002052 32 0 0.0 1.6 0.00 0.00 0.00 63 1017.9
20260903001602 32 0 0.0 1.6 0.00 0.00 0.00 64 1017.8
20260903001054 32 0 0.0 0.0 0.00 0.00 0.00 64 1017.6
20260903000552 32 0 0.0 0.0 0.00 0.00 0.00 63 1017.6
20260903000104 33 0 0.0 0.0 0.00 0.00 0.00 62 1017.7
20260902235552 33 0 0.0 0.0 0.00 0.00 0.00 61 1017.7
20260902235052 33 0 0.0 0.0 0.00 0.00 0.00 60 1017.7
20260902234601 33 0 0.0 0.0 0.00 0.00 0.00 59 1017.6
20260902234052 33 0 0.0 0.0 0.00 0.00 0.00 58 1017.8
20260902233553 33 0 0.0 0.0 0.00 0.00 0.00 57 1017.7
20260902233100 33 0 0.0 0.0 0.00 0.00 0.00 57 1017.7
20260902232552 34 0 0.0 0.0 0.00 0.00 0.00 57 1017.7
20260902232052 34 0 0.0 0.0 0.00 0.00 0.00 57 1017.8
20260902231612 34 0 0.0 0.0 0.00 0.00 0.00 57 1017.7
20260902231052 34 0 0.0 0.0 0.00 0.00 0.00 57 1017.8
20260902230548 34 0 0.0 0.0 0.00 0.00 0.00 56 1017.8
20260902230110 35 0 0.0 6.4 0.00 0.00 0.00 53 1017.9
20260902225553 35 0 0.0 6.4 0.00 0.00 0.00 52 1018.0
20260902225052 35 360 0.0 6.4 0.00 0.00 0.00 50 1017.9
20260902224608 35 0 1.6 6.4 0.00 0.00 0.00 50 1018.0
20260902224054 35 360 0.0 3.2 0.00 0.00 0.00 50 1017.9
20260902223552 35 0 0.0 4.8 0.00 0.00 0.00 50 1018.0
20260902223107 35 0 0.0 4.8 0.00 0.00 0.00 48 1017.9
20260902222553 35 0 0.0 4.8 0.00 0.00 0.00 48 1018.0
20260902222052 36 360 1.6 4.8 0.00 0.00 0.00 47 1018.0
20260902221628 36 0 0.0 4.8 0.00 0.00 0.00 48 1018.0
20260902221055 36 360 1.6 8.0 0.00 0.00 0.00 47 1018.0
20260902220552 36 0 0.0 8.0 0.00 0.00 0.00 46 1018.0
20260902220110 36 360 3.2 8.0 0.00 0.00 0.00 45 1018.1
20260902215603 36 360 1.6 6.4 0.00 0.00 0.00 47 1018.1
20260902215052 36 0 0.0 1.6 0.00 0.00 0.00 47 1018.1
20260902214700 36 0 0.0 1.6 0.00 0.00 0.00 49 1018.0
20260902214051 35 0 0.0 4.8 0.00 0.00 0.00 47 1018.0
20260902213552 35 0 0.0 9.7 0.00 0.00 0.00 48 1018.1
20260902213100 35 360 3.2 9.7 0.00 0.00 0.00 47 1018.1
20260902212552 35 360 4.8 9.7 0.00 0.00 0.00 47 1018.0
20260902212052 35 360 3.2 9.7 0.00 0.00 0.00 49 1018.1
20260902211604 35 360 0.0 3.2 0.00 0.00 0.00 51 1018.2
20260902211049 35 0 0.0 3.2 0.00 0.00 0.00 51 1018.2
20260902210550 35 360 0.0 6.4 0.00 0.00 0.00 49 1018.3
20260902210103 35 360 0.0 6.4 0.00 0.00 0.00 50 1018.3
20260902205556 35 360 1.6 6.4 0.00 0.00 0.00 50 1018.3
20260902205051 35 0 3.2 9.7 0.00 0.00 0.00 51 1018.3
20260902204608 35 360 0.0 9.7 0.00 0.00 0.00 52 1018.2
20260902204053 35 360 0.0 6.4 0.00 0.00 0.00 53 1018.4
20260902203554 35 360 1.6 6.4 0.00 0.00 0.00 53 1018.5
20260902203103 35 360 1.6 6.4 0.00 0.00 0.00 53 1018.5
20260902202554 35 360 1.6 6.4 0.00 0.00 0.00 52 1018.5
20260902202054 35 360 0.0 6.4 0.00 0.00 0.00 52 1018.5
20260902201610 35 0 0.0 6.4 0.00 0.00 0.00 52 1018.7
20260902201053 35 0 0.0 6.4 0.00 0.00 0.00 52 1018.7
20260902200553 35 360 3.2 6.4 0.00 0.00 0.00 51 1018.7
20260902200108 35 360 0.0 8.0 0.00 0.00 0.00 52 1018.8
20260902195555 35 0 1.6 8.0 0.00 0.00 0.00 52 1018.8
20260902195053 34 360 1.6 6.4 0.00 0.00 0.00 52 1019.0
20260902194602 34 360 0.0 4.8 0.00 0.00 0.00 52 1018.9
20260902194053 34 0 0.0 4.8 0.00 0.00 0.00 52 1019.0
20260902193554 34 360 0.0 4.8 0.00 0.00 0.00 55 1019.1
20260902193108 34 360 1.6 4.8 0.00 0.00 0.00 55 1019.2
20260902192557 34 360 1.6 6.4 0.00 0.00 0.00 54 1019.3
20260902192053 34 360 0.0 6.4 0.00 0.00 0.00 53 1019.3
20260902191637 33 360 1.6 8.0 0.00 0.00 0.00 54 1019.4
20260902191057 33 360 1.6 8.0 0.00 0.00 0.00 55 1019.5
20260902190558 33 360 1.6 12.9 0.00 0.00 0.00 55 1019.5
20260902190107 33 0 3.2 12.9 0.00 0.00 0.00 55 1019.6
20260902185554 34 0 3.2 8.0 0.00 0.00 0.00 55 1019.7
20260902185059 34 0 0.0 8.0 0.00 0.00 0.00 55 1019.8
20260902184656 34 360 0.0 8.0 0.00 0.00 0.00 57 1019.7
20260902184053 33 360 0.0 4.8 0.00 0.00 0.00 58 1019.6
20260902183557 33 360 0.0 4.8 0.00 0.00 0.00 59 1019.8
20260902183127 33 360 1.6 6.4 0.00 0.00 0.00 58 1019.8
20260902182553 33 360 1.6 6.4 0.00 0.00 0.00 58 1019.9
20260902182053 33 0 0.0 4.8 0.00 0.00 0.00 58 1019.9
20260902181613 33 360 0.0 6.4 0.00 0.00 0.00 58 1019.9
20260902181052 33 0 0.0 6.4 0.00 0.00 0.00 59 1019.9
20260902180553 33 0 1.6 8.0 0.00 0.00 0.00 59 1020.0
20260902180108 33 360 3.2 8.0 0.00 0.00 0.00 59 1020.1
20260902175554 33 360 0.0 8.0 0.00 0.00 0.00 59 1020.2
20260902175053 33 0 1.6 8.0 0.00 0.00 0.00 60 1020.2
20260902174602 33 0 1.6 8.0 0.00 0.00 0.00 60 1020.3
20260902174054 33 360 3.2 8.0 0.00 0.00 0.00 62 1020.5
20260902173554 33 360 1.6 8.0 0.00 0.00 0.00 63 1020.5
20260902173114 32 360 3.2 8.0 0.00 0.00 0.00 63 1020.5
20260902172555 32 360 0.0 6.4 0.00 0.00 0.00 63 1020.7
20260902172054 32 360 3.2 6.4 0.00 0.00 0.00 63 1020.8
20260902171618 32 360 1.6 9.7 0.00 0.00 0.00 62 1020.9
20260902171056 32 360 4.8 9.7 0.00 0.00 0.00 62 1020.9
20260902170553 32 360 0.0 9.7 0.00 0.00 0.00 63 1020.8
20260902170103 32 360 3.2 9.7 0.00 0.00 0.00 62 1021.0
20260902165553 32 360 1.6 8.0 0.00 0.00 0.00 62 1020.9
20260902165054 32 360 1.6 8.0 0.00 0.00 0.00 63 1021.0
20260902164606 32 360 1.6 8.0 0.00 0.00 0.00 64 1021.1
20260902164054 32 360 1.6 8.0 0.00 0.00 0.00 65 1021.3
20260902163554 31 0 0.0 8.0 0.00 0.00 0.00 64 1021.3
20260902163105 31 360 1.6 4.8 0.00 0.00 0.00 65 1021.5
20260902162553 31 360 1.6 4.8 0.00 0.00 0.00 65 1021.5
20260902162055 31 360 0.0 9.7 0.00 0.00 0.00 66 1021.6
20260902161602 31 0 3.2 9.7 0.00 0.00 0.00 65 1021.6
20260902161053 31 360 1.6 6.4 0.00 0.00 0.00 67 1021.5
20260902160554 31 360 1.6 6.4 0.00 0.00 0.00 67 1021.5
20260902160113 31 360 1.6 6.4 0.00 0.00 0.00 69 1021.6
20260902155554 31 360 0.0 6.4 0.00 0.00 0.00 69 1021.7
20260902155055 31 360 0.0 6.4 0.00 0.00 0.00 68 1021.7
20260902154609 31 0 0.0 6.4 0.00 0.00 0.00 70 1021.7
20260902154055 31 360 1.6 8.0 0.00 0.00 0.00 69 1021.7
20260902153553 31 0 0.0 8.0 0.00 0.00 0.00 70 1021.7
20260902153104 30 360 1.6 6.4 0.00 0.00 0.00 70 1021.7
20260902152555 30 0 0.0 3.2 0.00 0.00 0.00 71 1021.9
20260902152057 30 0 1.6 6.4 0.00 0.00 0.00 71 1021.9
20260902151605 30 360 1.6 6.4 0.00 0.00 0.00 71 1021.7
20260902151055 30 360 0.0 4.8 0.00 0.00 0.00 72 1021.7
20260902150553 29 0 0.0 4.8 0.00 0.00 0.00 72 1021.7
20260902150105 29 360 1.6 4.8 0.00 0.00 0.00 72 1021.7
20260902145554 29 360 0.0 3.2 0.00 0.00 0.00 74 1021.7
20260902145053 29 0 0.0 3.2 0.00 0.00 0.00 74 1021.8
20260902144604 29 0 0.0 1.6 0.00 0.00 0.00 74 1021.8
20260902144053 29 0 0.0 3.2 0.00 0.00 0.00 75 1021.8